Previsão horária em Al Hufuf

Hoje, 27 Janeiro, Quarta-feira

Tempo Temperatura Precipitação Vento Pressão Humidade
00:00 +13°C° 0 mm 1 m/s 752 mmHg 71%
01:00 +12°C° 0 mm 1 m/s 751 mmHg 71%
02:00 +12°C° 0 mm 1 m/s 751 mmHg 72%
03:00 +11°C° 0 mm 1 m/s 751 mmHg 72%
04:00 +11°C° 0 mm 1 m/s 751 mmHg 70%
05:00 +11°C° 0 mm 1 m/s 752 mmHg 67%
06:00 +12°C° 0 mm 1 m/s 752 mmHg 65%
07:00 +14°C° 0 mm 1 m/s 752 mmHg 53%
08:00 +17°C° 0 mm 2 m/s 753 mmHg 41%
09:00 +20°C° 0 mm 2 m/s 753 mmHg 29%
10:00 +23°C° 0 mm 1 m/s 753 mmHg 26%
11:00 +24°C° 0 mm 1 m/s 752 mmHg 22%
12:00 +26°C° 0 mm 1 m/s 752 mmHg 19%
13:00 +27°C° 0 mm 1 m/s 751 mmHg 18%
14:00 +27°C° 0 mm 1 m/s 751 mmHg 18%
15:00 +28°C° 0 mm 1 m/s 750 mmHg 17%
16:00 +25°C° 0 mm 2 m/s 750 mmHg 21%
17:00 +22°C° 0 mm 3 m/s 750 mmHg 25%
18:00 +20°C° 0 mm 4 m/s 750 mmHg 29%
19:00 +18°C° 0 mm 3 m/s 751 mmHg 37%
20:00 +17°C° 0 mm 3 m/s 751 mmHg 46%
21:00 +15°C° 0 mm 2 m/s 751 mmHg 54%
22:00 +15°C° 0 mm 2 m/s 751 mmHg 59%
23:00 +14°C° 0 mm 2 m/s 751 mmHg 63%

Amanhã, 28 Janeiro, Quinta-feira

Tempo Temperatura Precipitação Vento Pressão Humidade
00:00 +14°C° 0 mm 1 m/s 751 mmHg 67%
01:00 +13°C° 0 mm 1 m/s 750 mmHg 68%
02:00 +13°C° 0 mm 1 m/s 750 mmHg 69%
03:00 +13°C° 0 mm 1 m/s 750 mmHg 70%
04:00 +13°C° 0 mm 1 m/s 750 mmHg 68%
05:00 +13°C° 0 mm 1 m/s 751 mmHg 66%
06:00 +13°C° 0 mm 2 m/s 751 mmHg 64%
07:00 +15°C° 0 mm 2 m/s 751 mmHg 54%
08:00 +18°C° 0 mm 3 m/s 751 mmHg 44%
09:00 +21°C° 0 mm 3 m/s 752 mmHg 34%
10:00 +22°C° 0 mm 3 m/s 751 mmHg 29%
11:00 +25°C° 0 mm 3 m/s 751 mmHg 24%
12:00 +27°C° 0 mm 4 m/s 751 mmHg 18%
13:00 +28°C° 0 mm 3 m/s 750 mmHg 17%
14:00 +28°C° 0 mm 3 m/s 750 mmHg 16%
15:00 +29°C° 0 mm 3 m/s 749 mmHg 15%
16:00 +27°C° 0 mm 3 m/s 749 mmHg 18%
17:00 +24°C° 0 mm 3 m/s 749 mmHg 20%
18:00 +21°C° 0 mm 3 m/s 749 mmHg 23%
19:00 +20°C° 0 mm 3 m/s 749 mmHg 24%
20:00 +20°C° 0 mm 3 m/s 750 mmHg 25%
21:00 +19°C° 0 mm 4 m/s 750 mmHg 27%
22:00 +18°C° 0 mm 3 m/s 750 mmHg 31%
23:00 +18°C° 0 mm 3 m/s 749 mmHg 35%

Depois de amanhã, 29 Janeiro, Sexta-feira

Tempo Temperatura Precipitação Vento Pressão Humidade
00:00 +17°C° 0 mm 3 m/s 749 mmHg 39%
01:00 +17°C° 0 mm 3 m/s 749 mmHg 40%
02:00 +17°C° 0 mm 3 m/s 749 mmHg 41%
03:00 +16°C° 0 mm 3 m/s 748 mmHg 42%
04:00 +16°C° 0 mm 3 m/s 749 mmHg 41%
05:00 +16°C° 0 mm 3 m/s 749 mmHg 40%
06:00 +16°C° 0 mm 3 m/s 749 mmHg 39%
07:00 +18°C° 0 mm 4 m/s 750 mmHg 34%
08:00 +20°C° 0 mm 4 m/s 750 mmHg 29%
09:00 +22°C° 0 mm 5 m/s 750 mmHg 25%
10:00 +25°C° 0 mm 5 m/s 750 mmHg 22%
11:00 +27°C° 0 mm 6 m/s 749 mmHg 19%
12:00 +30°C° 0 mm 6 m/s 749 mmHg 16%
13:00 +30°C° 0 mm 6 m/s 748 mmHg 16%
14:00 +32°C° 0 mm 6 m/s 747 mmHg 15%
15:00 +33°C° 0 mm 6 m/s 747 mmHg 15%
16:00 +30°C° 0 mm 5 m/s 747 mmHg 17%
17:00 +27°C° 0 mm 4 m/s 747 mmHg 19%
18:00 +25°C° 0 mm 4 m/s 747 mmHg 21%
19:00 +23°C° 0 mm 4 m/s 747 mmHg 22%
20:00 +24°C° 0 mm 3 m/s 747 mmHg 23%
21:00 +22°C° 0 mm 3 m/s 747 mmHg 23%
22:00 +21°C° 0 mm 4 m/s 747 mmHg 24%
23:00 +21°C° 0 mm 5 m/s 747 mmHg 25%

30 Janeiro, Sábado

Tempo Temperatura Precipitação Vento Pressão Humidade
00:00 +20°C° 0 mm 6 m/s 747 mmHg 26%
01:00 +20°C° 0 mm 5 m/s 746 mmHg 26%
02:00 +20°C° 0 mm 5 m/s 746 mmHg 25%
03:00 +20°C° 0 mm 5 m/s 746 mmHg 24%
04:00 +19°C° 0 mm 6 m/s 746 mmHg 23%
05:00 +19°C° 0 mm 6 m/s 746 mmHg 23%
06:00 +19°C° 0 mm 6 m/s 747 mmHg 22%
07:00 +21°C° 0 mm 6 m/s 747 mmHg 21%
08:00 +23°C° 0 mm 7 m/s 748 mmHg 20%
09:00 +26°C° 0 mm 7 m/s 748 mmHg 18%
10:00 +27°C° 0 mm 7 m/s 748 mmHg 19%
11:00 +28°C° 0 mm 7 m/s 748 mmHg 19%
12:00 +28°C° 0 mm 7 m/s 748 mmHg 19%
13:00 +28°C° 0 mm 7 m/s 748 mmHg 18%
14:00 +28°C° 0 mm 7 m/s 747 mmHg 18%
15:00 +27°C° 0 mm 7 m/s 747 mmHg 17%
16:00 +24°C° 0 mm 7 m/s 748 mmHg 20%
17:00 +22°C° 0 mm 6 m/s 748 mmHg 24%
18:00 +20°C° 0 mm 5 m/s 749 mmHg 27%
19:00 +19°C° 0 mm 5 m/s 750 mmHg 31%
20:00 +17°C° 0 mm 5 m/s 750 mmHg 34%
21:00 +16°C° 0 mm 5 m/s 751 mmHg 38%
22:00 +15°C° 0 mm 5 m/s 751 mmHg 41%
23:00 +15°C° 0 mm 5 m/s 751 mmHg 43%

31 Janeiro, Domingo

Tempo Temperatura Precipitação Vento Pressão Humidade
00:00 +14°C° 0 mm 5 m/s 751 mmHg 46%
01:00 +13°C° 0 mm 5 m/s 751 mmHg 47%
02:00 +13°C° 0 mm 5 m/s 751 mmHg 48%
03:00 +12°C° 0 mm 5 m/s 751 mmHg 49%
04:00 +12°C° 0 mm 5 m/s 751 mmHg 49%
05:00 +11°C° 0 mm 4 m/s 751 mmHg 50%
06:00 +11°C° 0 mm 4 m/s 751 mmHg 50%
07:00 +13°C° 0 mm 5 m/s 752 mmHg 45%
08:00 +14°C° 0 mm 5 m/s 752 mmHg 40%
09:00 +16°C° 0 mm 6 m/s 753 mmHg 35%
10:00 +17°C° 0 mm 6 m/s 753 mmHg 31%
11:00 +20°C° 0 mm 6 m/s 752 mmHg 26%
12:00 +21°C° 0 mm 6 m/s 752 mmHg 22%
13:00 +22°C° 0 mm 6 m/s 752 mmHg 20%
14:00 +22°C° 0 mm 6 m/s 751 mmHg 19%
15:00 +23°C° 0 mm 6 m/s 751 mmHg 18%
16:00 +21°C° 0 mm 5 m/s 751 mmHg 21%
17:00 +19°C° 0 mm 4 m/s 752 mmHg 24%
18:00 +17°C° 0 mm 4 m/s 752 mmHg 28%
19:00 +16°C° 0 mm 3 m/s 752 mmHg 34%
20:00 +14°C° 0 mm 3 m/s 753 mmHg 41%
21:00 +12°C° 0 mm 3 m/s 753 mmHg 47%
22:00 +12°C° 0 mm 3 m/s 753 mmHg 50%
23:00 +11°C° 0 mm 3 m/s 753 mmHg 54%

1 Fevereiro, Segunda-feira

Tempo Temperatura Precipitação Vento Pressão Humidade
00:00 +11°C° 0 mm 3 m/s 753 mmHg 57%
01:00 +11°C° 0 mm 3 m/s 753 mmHg 56%
02:00 +11°C° 0 mm 3 m/s 753 mmHg 54%
03:00 +11°C° 0 mm 3 m/s 752 mmHg 53%
04:00 +10°C° 0 mm 3 m/s 753 mmHg 52%
05:00 +10°C° 0 mm 4 m/s 753 mmHg 51%
06:00 +10°C° 0 mm 4 m/s 753 mmHg 51%
07:00 +12°C° 0 mm 4 m/s 754 mmHg 44%
08:00 +15°C° 0 mm 5 m/s 754 mmHg 37%
09:00 +17°C° 0 mm 5 m/s 755 mmHg 30%
10:00 +19°C° 0 mm 6 m/s 754 mmHg 26%
11:00 +21°C° 0 mm 6 m/s 754 mmHg 23%
12:00 +23°C° 0 mm 6 m/s 753 mmHg 19%
13:00 +23°C° 0 mm 6 m/s 753 mmHg 18%
14:00 +23°C° 0 mm 6 m/s 753 mmHg 17%
15:00 +25°C° 0 mm 5 m/s 752 mmHg 16%
16:00 +22°C° 0 mm 5 m/s 752 mmHg 21%
17:00 +19°C° 0 mm 4 m/s 752 mmHg 25%
18:00 +17°C° 0 mm 3 m/s 752 mmHg 29%
19:00 +16°C° 0 mm 3 m/s 753 mmHg 33%
20:00 +14°C° 0 mm 3 m/s 753 mmHg 38%
21:00 +13°C° 0 mm 3 m/s 753 mmHg 43%
22:00 +13°C° 0 mm 3 m/s 753 mmHg 45%
23:00 +13°C° 0 mm 3 m/s 753 mmHg 47%
Mostrar mais

Necessitamos do seu Consentimento

A Meteoprog e os seus Fornecedores de Serviços podem armazenar e aceder a dados pessoais como cookies, identificadores do dispositivo ou outras tecnologias semelhantes existentes no seu dispositivo e processar estes dados para personalizar conteúdos e anúncios, assim como funcionalidades nas redes sociais e análise de tráfego.

  • Armazenar e/ou aceder a informações no seu dispositivo

    Os cookies, identificadores do dispositivo ou outras informações podem ser armazenados ou acedidos no seu dispositivo, para os fins acima indicados.

  • Anúncios e conteúdos personalizados, medição de anúncios e conteúdos, dados sobre o público-alvo e desenvolvimento de produtos

    Os anúncios e os conteúdos podem ser personalizados com base num perfil. Podem ser adicionados dados adicionais para uma maior personalização dos anúncios e dos conteúdos. A eficácia dos anúncios e dos conteúdos pode ser medida. Podem ser obtidas informações sobre o público que visualizou os anúncios e os conteúdos. Estes dados podem ser usados para desenvolver ou melhorar sistemas, softwares ou a experiência do utilizador.

Ao clicar em "Eu concordo”, permitirá o uso de cookies, identificadores do dispositivo e web beacons mencionados ou outras tecnologias semelhantes. As configurações do navegador do seu dispositivo podem ser alteradas.

Para certos fins, podem ser invocados interesses legítimos ao invés de consentimento. Pode ler mais informação sobre este assunto na nossa Política de Privacidade e Cookies.